Location: Les Chemineaux
(47.3024°N, 1.5104°E)
Time: 01:29:10
(UTC+00:00)

Cosmos 1833 Rocket - Pass Details

Date: 19 May 2025
Orbit: 831 x 839 km, 71.0° (Epoch: 18 June)

Event Time Altitude Azimuth Distance (km) Brightness Sun altitude
Rises 22:05:14 0° 233° (SW) 3,381 5.7 -18.7°
Reaches altitude 10° 22:07:52 10° 242° (WSW) 2,451 5.1 -18.9°
Maximum altitude 22:13:00 35° 308° (NW) 1,323 4.2 -19.2°
Drops below altitude 10° 22:18:10 10° 14° (NNE) 2,464 5.9 -19.6°
Sets 22:20:50 0° 23° (NNE) 3,401 6.5 -19.8°
